Location: Cheching
(60.0667°N, 164.2167°W)
Time: 00:24:02
(UTC+00:00)

TIGRISAT - Visible Passes

Search period start: 24 January 2021 00:00
Search period end: 03 February 2021 00:00
Orbit: 604 x 689 km, 97.7° (Epoch: 23 January)

Date Brightness Start Highest point End Pass type
(mag) Time Alt. Az. Time Alt. Az. Time Alt. Az.
24 Jan ? 16:03:55 10° ESE 16:07:28 26° NE 16:11:07 10° N visible
24 Jan ? 17:39:31 10° S 17:43:49 72° WSW 17:48:15 10° NNW visible
25 Jan ? 14:55:57 10° NE 14:57:15 11° NE 14:58:33 10° NNE visible
25 Jan ? 16:28:51 10° SE 16:32:50 36° ENE 16:36:53 10° N visible
25 Jan ? 18:05:19 10° S 18:09:28 46° W 18:13:45 10° NNW visible
26 Jan ? 15:19:56 10° ENE 15:22:25 15° NE 15:24:55 10° N visible
26 Jan ? 16:54:01 10° SE 16:58:15 54° ENE 17:02:36 10° N visible
26 Jan ? 18:31:24 10° SSW 18:35:13 30° W 18:39:08 10° NNW visible
27 Jan ? 15:44:26 10° E 15:47:38 20° NE 15:50:54 10° N visible
27 Jan ? 17:19:25 10° SSE 17:23:45 83° ENE 17:28:14 10° NNW visible
28 Jan ? 16:09:12 10° ESE 16:12:56 28° NE 16:16:44 10° N visible
28 Jan ? 17:45:01 10° S 17:49:20 65° WSW 17:53:48 10° NNW visible
29 Jan ? 15:00:54 10° ENE 15:02:39 12° NE 15:04:26 10° NNE visible
29 Jan ? 16:34:12 10° SE 16:38:17 40° ENE 16:42:29 10° N visible
29 Jan ? 18:10:52 10° SSW 18:15:00 41° W 18:19:16 10° NNW visible
30 Jan ? 15:25:05 10° E 15:27:50 16° NE 15:30:36 10° N visible
30 Jan ? 16:59:26 10° SE 17:03:44 60° ENE 17:08:11 10° NNW visible
31 Jan ? 15:49:40 10° ESE 15:53:04 22° NE 15:56:32 10° N visible
31 Jan ? 17:24:51 10° SSE 17:29:15 89° W 17:33:47 10° NNW visible
01 Feb ? 16:14:30 10° ESE 16:18:23 31° ENE 16:22:21 10° N visible
01 Feb ? 17:50:31 10° S 17:54:51 58° WSW 17:59:20 10° NNW visible
02 Feb ? 15:05:57 10° ENE 15:08:04 13° NE 15:10:13 10° NNE visible
02 Feb ? 16:39:33 10° SE 16:43:45 44° ENE 16:48:05 10° N visible
02 Feb ? 18:16:26 10° SSW 18:20:33 38° W 18:24:48 10° NNW visible
